ECMWFFLT2_700_spd_021.txt.gz
Wind_Speed
14 14 11 8 9 11 11 10 9 9 9 9 8 8 7 7 7 6 6 7 7 7 8 8 8 7 7 7 7 7 8 9 9 11 12 13 14 13 13 13 13 14 17 21 25 27 28 29 31 31 32 31 28 27 27 27 27 26 26 24 23 22
14 15 14 12 11 10 9 9 9 9 9 9 8 8 7 7 6 6 7 7 7 7 9 9 8 8 7 7 7 7 7 8 8 9 10 12 13 13 12 12 12 13 15 18 22 25 27 29 30 31 32 31 29 28 28 28 28 27 26 25 24 24
14 15 14 13 10 9 9 10 10 10 10 9 8 8 7 7 6 6 6 7 7 8 9 10 10 9 8 8 7 7 7 7 7 7 7 9 10 10 11 11 11 12 14 16 20 23 25 28 30 31 32 31 29 28 29 29 28 27 27 26 25 24
13 13 12 11 10 10 11 11 11 10 10 10 9 9 8 7 7 7 6 7 8 9 10 10 11 10 9 8 7 8 8 7 7 6 5 5 6 7 7 7 7 10 12 14 18 21 23 26 28 31 31 30 28 28 29 30 29 29 28 27 26 25
12 12 11 10 10 10 11 11 11 10 10 10 10 10 9 9 8 7 7 8 9 9 10 11 11 11 10 9 8 9 9 9 8 7 5 4 4 4 4 3 3 6 9 12 15 18 20 23 26 29 30 29 28 28 29 30 30 30 29 27 26 25
11 10 10 9 9 10 11 11 11 10 10 10 10 11 10 10 9 9 8 9 10 11 11 11 11 11 11 10 10 10 10 10 9 8 7 6 5 4 4 2 2 2 6 10 12 15 17 20 23 25 27 28 28 29 29 29 29 30 29 28 27 26
10 9 8 8 9 10 11 11 10 10 10 10 11 11 11 11 11 10 10 10 11 12 12 12 12 11 11 12 11 11 11 11 10 9 8 8 7 6 4 3 2 1 2 7 10 13 14 16 19 21 23 25 27 27 27 27 27 28 28 27 26 26
11 10 9 8 9 10 10 10 10 10 10 11 11 12 12 12 12 11 10 11 12 12 12 12 12 12 13 12 12 12 12 12 11 10 9 9 8 7 5 4 3 3 3 3 6 10 12 13 14 16 19 22 24 24 25 25 25 25 26 27 26 26
12 10 10 10 11 11 10 10 10 10 10 11 12 12 12 12 13 12 11 12 13 13 13 13 14 14 14 13 13 13 13 12 12 10 8 8 8 7 6 5 4 3 4 3 3 6 9 11 12 14 17 20 21 21 22 23 23 24 25 26 26 25
11 10 10 10 11 11 10 11 11 11 12 12 13 13 13 13 13 13 13 13 14 14 14 14 15 15 15 14 14 14 13 12 11 9 7 6 6 6 6 5 4 2 2 2 2 4 6 9 11 13 15 17 19 20 21 22 23 24 24 25 25 24
10 10 10 10 11 10 10 11 12 13 13 14 15 14 14 14 14 14 14 15 16 15 15 16 16 16 16 15 15 14 13 12 10 7 5 5 5 5 6 6 5 3 2 2 3 4 6 7 9 11 12 14 16 18 20 21 22 22 22 23 24 24
10 11 10 10 9 10 10 11 12 13 14 14 15 14 14 14 15 16 16 17 17 16 17 17 16 17 17 17 16 15 14 11 8 5 5 5 5 6 6 5 5 4 4 4 4 5 6 6 7 8 8 10 13 16 18 19 20 20 20 22 23 23
10 10 9 8 7 8 8 9 10 11 12 12 13 13 14 15 16 17 18 19 17 17 18 16 14 16 18 18 17 15 13 10 7 6 7 8 8 8 8 6 6 6 5 5 6 6 5 5 5 5 6 8 10 13 16 18 19 19 19 20 21 21
10 8 6 5 4 3 4 5 6 7 9 10 11 12 14 15 17 17 19 19 17 17 19 16 14 16 18 18 17 15 12 10 9 8 10 10 9 10 9 7 7 7 6 7 7 6 5 5 6 7 7 7 9 11 12 14 16 17 18 19 19 19
9 7 5 4 2 2 3 4 5 6 6 8 9 11 13 14 16 17 18 19 18 18 20 18 16 17 18 18 17 15 13 11 11 11 12 12 11 11 10 8 8 8 8 9 9 7 7 7 8 8 7 7 8 9 9 10 12 13 14 16 17 18
10 8 6 6 6 7 7 8 8 7 7 7 7 8 10 13 14 16 17 18 19 19 19 17 17 18 18 18 17 15 13 13 13 13 13 12 11 12 11 9 9 10 10 11 11 10 9 10 10 9 9 8 8 8 9 9 9 9 10 12 15 16
10 8 8 8 9 8 9 10 11 11 11 10 9 8 8 10 12 14 16 17 19 18 16 15 16 17 16 16 16 14 12 13 14 14 13 12 13 13 12 11 11 11 12 13 13 13 13 12 12 10 9 8 7 8 8 9 9 8 8 9 11 12
9 8 9 9 9 9 10 11 12 13 13 14 12 9 8 9 11 14 15 16 17 16 16 17 16 17 17 15 14 13 12 13 14 14 14 13 15 14 13 13 13 13 13 13 13 14 15 14 13 11 9 8 8 8 8 9 10 10 9 9 10 10
9 9 9 9 8 8 9 11 12 13 15 16 15 12 8 8 10 13 15 17 16 14 15 17 16 17 18 15 13 13 13 13 14 15 14 13 14 15 14 14 13 13 13 13 13 14 15 14 13 12 10 9 9 8 9 10 10 11 11 10 11 11
10 9 9 8 7 6 7 9 11 12 14 16 16 15 11 8 7 9 13 16 16 15 15 16 16 17 16 14 13 14 14 14 15 15 15 15 15 16 16 15 14 14 13 13 14 14 14 14 13 12 11 11 10 10 10 10 10 11 12 12 12 13
10 8 8 7 5 4 5 7 8 10 12 14 16 16 15 12 8 6 9 12 13 15 16 16 15 14 13 12 13 14 14 14 14 15 15 15 15 16 17 16 15 15 15 14 14 14 13 13 13 12 12 12 12 13 12 12 11 11 12 12 13 13
9 7 6 5 3 2 3 5 7 9 11 14 15 16 16 14 11 7 6 8 10 12 14 16 15 15 14 13 13 13 13 13 13 14 14 14 13 13 14 15 15 16 16 15 15 15 14 14 14 13 13 14 15 15 15 15 14 13 13 13 13 14
10 7 5 3 2 0 2 4 6 8 10 12 14 15 15 14 12 9 6 6 8 9 10 12 14 16 17 17 15 14 14 14 14 15 15 14 13 12 12 13 14 15 16 16 16 16 15 16 15 15 15 16 16 16 17 17 16 15 15 15 16 16
11 9 6 4 4 2 2 3 5 7 9 11 12 14 14 14 13 10 7 5 6 8 8 9 11 13 16 18 18 17 17 17 17 17 17 16 15 13 14 14 14 14 15 16 16 16 16 17 17 17 17 17 17 16 17 17 17 17 16 16 17 17
12 11 9 7 6 5 4 3 4 6 8 10 11 12 13 13 12 10 8 6 6 7 8 9 10 10 12 14 16 17 18 19 19 19 19 18 16 15 15 16 16 15 16 15 16 16 16 16 17 17 17 17 17 16 16 17 17 17 17 17 17 17
14 13 11 9 8 7 6 5 5 6 8 10 11 12 12 12 11 10 8 6 5 5 7 8 10 10 10 10 12 14 16 17 18 18 17 17 16 16 17 17 18 17 17 16 16 16 16 16 16 17 17 17 16 16 16 16 16 17 16 16 16 16
15 15 14 12 10 9 8 7 6 6 8 9 9 10 12 12 11 10 8 6 5 4 5 7 8 9 9 9 10 11 13 13 14 14 14 14 15 15 16 18 18 18 17 17 16 16 16 16 16 16 16 15 15 15 15 16 15 15 15 15 15 15
16 17 17 14 12 11 10 9 9 8 8 9 8 8 10 11 12 11 10 8 6 5 4 5 6 7 8 8 8 9 10 10 10 11 11 12 13 14 14 15 16 17 17 18 18 17 16 15 15 16 15 14 14 14 14 14 14 14 15 15 15 15
18 19 19 17 15 13 12 11 11 10 10 10 9 7 8 9 10 11 10 9 7 6 5 5 5 5 6 7 7 7 7 8 8 9 10 10 10 11 11 12 12 13 15 16 17 17 16 15 14 14 14 14 14 14 14 13 14 15 16 16 15 15
22 22 21 19 18 17 15 13 12 12 12 11 9 7 6 7 8 8 9 8 7 6 5 5 4 5 6 7 7 6 6 7 8 9 9 9 9 8 8 8 8 8 9 11 13 14 14 14 13 13 13 13 13 14 14 13 14 14 14 14 15 15
24 24 22 21 21 20 19 17 14 13 13 13 10 8 6 6 6 6 7 6 5 5 4 4 4 4 5 7 7 6 6 7 8 9 9 9 8 8 8 7 6 6 7 8 9 10 11 12 12 12 11 11 12 12 12 12 12 12 12 12 13 12
23 23 23 23 24 25 23 21 17 13 13 14 12 10 7 5 6 5 5 4 3 3 2 2 3 4 4 5 6 6 7 8 9 9 9 9 9 9 8 8 7 7 7 7 7 8 8 9 9 8 8 8 9 9 8 8 8 9 9 9 9 9
21 22 24 25 27 28 28 25 21 15 12 14 13 12 9 6 6 5 4 3 2 1 1 1 1 2 4 5 6 7 7 8 8 9 9 9 9 8 8 8 7 7 7 7 7 7 7 6 6 6 5 5 5 5 4 4 4 5 5 6 6 5
19 22 24 26 29 32 32 31 28 22 17 16 16 13 11 8 6 5 3 2 1 2 3 4 3 3 4 5 6 6 7 7 7 7 7 7 7 7 6 6 6 6 6 6 6 6 5 5 5 5 4 4 4 4 4 4 4 4 5 5 6 6
19 23 26 29 33 34 34 34 33 29 24 21 18 14 11 9 8 5 2 1 1 4 5 6 5 5 5 5 5 5 5 6 6 6 6 6 6 6 6 6 5 5 5 5 4 4 4 3 3 3 2 2 2 2 1 1 1 2 2 3 4 4
20 26 31 33 32 30 30 31 31 30 28 24 19 14 11 10 10 7 5 4 4 5 7 8 8 7 7 7 7 7 7 7 8 8 9 9 10 10 10 10 10 10 10 9 9 8 8 8 7 7 7 6 6 6 5 5 4 3 3 3 3 3
23 33 34 28 24 23 23 23 23 27 28 24 19 15 12 12 12 10 8 7 6 6 7 9 10 10 10 9 9 10 10 10 11 11 11 11 12 12 11 11 11 11 11 11 11 11 10 10 10 9 9 9 9 8 8 7 6 5 5 5 5 4

ECMWFFLT2_700_spd_024.txt.gz
Wind_Speed
13 15 15 14 14 12 11 10 9 8 7 7 7 6 5 6 7 7 8 8 7 7 7 6 5 4 4 5 5 5 6 7 7 7 8 9 9 9 10 11 12 13 14 16 19 22 24 26 27 27 26 26 25 25 24 24 24 23 23 22 20 19
12 14 13 13 12 9 9 8 8 8 8 8 7 6 6 7 7 8 9 8 8 8 7 7 6 5 5 5 5 5 6 6 7 6 7 8 8 9 9 10 12 13 13 14 16 19 22 25 27 28 27 26 25 25 25 25 24 23 23 23 22 20
11 12 12 11 9 8 7 8 8 8 8 8 7 7 7 8 8 9 10 9 9 9 8 7 6 6 6 6 5 5 6 6 6 5 5 6 6 6 7 8 10 11 12 13 14 16 18 22 26 28 27 25 25 26 26 26 25 24 23 23 23 22
10 11 12 11 8 8 8 9 9 9 9 8 8 8 8 9 9 10 10 10 10 9 8 7 7 7 7 6 6 6 6 6 6 4 4 4 3 2 2 5 7 9 11 13 14 16 18 21 24 26 25 24 24 25 26 26 25 25 24 23 23 23
10 11 11 10 8 8 8 9 9 8 9 9 9 9 9 9 10 11 11 11 11 10 9 8 8 8 8 7 7 7 7 7 6 5 4 3 2 2 2 2 3 5 8 11 13 14 17 19 22 24 22 21 23 24 25 25 25 25 24 23 23 23
11 11 10 10 9 9 8 8 8 9 9 9 9 9 10 10 11 12 12 12 11 11 10 9 9 9 9 9 8 8 8 8 7 6 4 3 2 2 2 2 2 3 4 6 9 11 13 15 18 19 19 19 21 22 23 23 23 23 23 23 22 23
12 11 11 10 10 9 8 9 9 9 9 9 9 10 11 11 12 13 13 13 12 12 11 10 10 10 10 10 9 9 9 9 8 7 5 4 3 2 1 1 1 1 2 3 5 8 10 12 14 15 15 17 19 20 21 22 22 22 22 22 22 23
12 12 11 10 9 8 8 9 9 9 9 9 9 10 11 12 13 14 14 14 13 12 12 11 11 11 11 10 10 9 9 9 9 8 7 5 4 3 2 1 1 1 1 1 4 6 8 10 11 12 13 14 16 17 18 20 20 20 21 22 22 23
12 11 10 9 8 8 8 8 8 9 9 9 10 10 12 13 14 15 16 15 13 13 12 12 13 13 12 11 10 9 8 9 9 8 8 7 5 3 3 2 2 2 2 3 4 5 7 8 9 11 12 12 13 14 16 17 18 19 20 21 21 21
12 11 9 8 7 6 7 8 8 9 9 10 10 11 12 13 14 15 15 15 14 13 12 13 14 14 13 11 10 10 9 9 9 8 8 7 4 4 3 3 3 3 3 3 3 4 6 7 8 9 11 11 11 13 14 15 17 18 19 20 20 20
12 9 7 6 6 6 7 7 8 9 9 10 11 12 13 13 15 14 14 15 16 14 13 15 16 14 13 12 11 10 10 10 9 7 7 6 4 4 4 4 3 3 3 3 3 3 4 4 5 7 8 9 10 11 13 14 16 17 17 18 18 19
10 7 5 5 6 7 7 8 9 10 10 11 12 12 13 13 13 12 13 16 16 13 14 16 16 15 13 12 12 12 11 11 9 7 6 6 5 6 6 5 4 3 3 3 3 3 3 2 3 4 5 7 8 9 10 12 13 14 15 16 17 17
8 5 5 6 6 7 8 9 9 9 10 11 11 12 12 12 12 12 15 17 14 13 15 16 16 14 12 13 14 14 13 11 8 7 7 7 7 8 7 6 5 4 3 3 3 2 2 2 2 3 4 5 7 8 9 9 10 12 13 14 15 16
6 4 4 5 5 6 6 5 6 6 7 8 9 10 11 11 11 12 14 15 13 12 14 14 15 13 11 12 14 16 13 11 9 8 8 8 8 9 8 7 6 5 4 3 3 3 3 2 3 3 4 5 6 8 9 9 9 10 11 13 14 15
4 4 3 3 2 1 1 3 3 4 4 5 5 7 10 11 11 12 13 14 12 12 14 13 13 12 10 11 13 15 13 11 10 10 10 9 9 9 9 8 7 6 6 5 5 5 5 4 4 3 4 5 6 7 9 9 8 8 9 10 12 13
4 4 4 4 4 5 5 5 6 6 6 6 5 4 7 10 11 11 11 13 12 13 14 13 12 11 10 12 14 14 13 12 13 12 11 10 9 10 10 9 8 7 7 7 7 7 8 7 7 6 6 7 6 7 8 8 8 7 6 7 8 9
6 6 7 8 7 7 7 7 7 8 9 8 7 5 5 7 9 10 10 12 13 13 14 12 11 9 10 13 15 14 12 13 14 14 12 11 11 11 10 10 10 9 9 9 9 9 10 10 10 10 9 9 8 7 7 7 7 6 6 5 5 6
9 10 9 9 8 8 7 7 7 9 10 11 10 8 6 6 7 8 8 11 12 13 13 11 10 9 9 12 14 12 12 13 14 14 13 12 12 12 11 11 11 11 11 11 12 12 12 13 13 12 12 11 10 8 7 7 7 7 7 5 5 5
12 12 11 10 9 7 6 6 7 9 11 12 12 11 9 7 6 6 6 8 10 12 12 10 9 9 10 12 12 11 11 12 13 13 12 12 12 12 11 11 11 11 12 12 13 14 15 14 14 14 14 13 11 8 7 8 7 7 7 6 7 7
14 13 12 10 8 6 4 4 6 8 10 12 13 13 12 10 9 6 4 5 8 11 12 11 9 9 9 10 10 10 10 11 11 12 12 12 12 12 11 11 11 12 13 13 14 15 16 15 15 15 14 12 11 9 8 7 7 7 7 7 8 7
15 13 12 10 7 5 3 2 4 6 9 11 12 13 13 12 10 8 5 3 5 8 10 11 10 9 8 8 9 9 9 10 11 12 12 12 12 12 12 11 12 13 14 16 17 16 16 16 15 15 14 12 11 9 7 7 7 7 8 7 8 8
15 13 11 9 7 5 2 0 2 5 7 9 11 12 13 13 12 10 6 4 3 4 6 8 10 10 9 9 9 9 9 10 11 12 12 11 11 11 11 11 11 12 13 16 17 17 16 16 16 16 14 11 9 8 8 9 9 8 8 8 8 8
15 14 12 9 7 5 3 2 2 4 6 8 9 10 12 13 13 11 9 6 4 3 3 4 7 9 10 11 11 11 11 11 11 12 11 11 11 12 13 13 12 12 14 15 15 16 17 16 15 14 11 9 8 9 9 10 10 9 9 9 9 9
16 14 12 10 8 6 4 4 3 4 5 7 8 9 10 12 13 13 11 9 6 5 4 3 3 6 9 11 12 13 14 14 14 13 13 14 14 15 15 15 15 15 15 14 13 15 17 15 13 12 11 9 10 10 10 11 11 10 10 10 11 11
15 14 13 11 9 7 6 5 5 5 5 6 8 9 9 11 13 14 13 10 8 7 6 5 3 3 6 8 11 13 14 15 15 15 16 16 17 17 18 18 17 15 14 13 13 15 17 14 11 11 11 10 11 11 12 11 11 12 12 12 12 12
14 14 13 12 10 8 8 7 7 7 7 7 8 9 10 10 12 14 14 12 10 8 7 7 5 4 4 6 8 10 11 12 13 14 16 17 18 19 19 19 18 16 15 14 14 13 13 13 11 10 11 11 11 12 12 11 11 11 11 12 12 13
15 15 14 13 12 10 10 9 9 8 8 9 10 10 10 10 11 13 14 13 11 8 7 7 6 5 4 5 6 7 8 9 10 12 13 15 17 17 17 17 16 16 15 14 14 14 13 14 13 12 12 12 12 12 12 12 11 11 10 11 12 12
16 15 15 14 14 12 12 12 11 10 9 9 11 11 11 10 10 11 12 12 11 8 6 6 6 6 6 6 6 6 7 7 8 9 10 11 13 13 13 14 13 14 14 13 16 17 17 16 15 13 12 12 11 12 11 11 11 10 10 11 12 13
16 14 14 14 15 15 14 14 13 12 11 11 11 10 10 11 10 10 11 11 10 9 7 5 5 6 6 7 7 6 6 6 6 7 8 8 9 9 9 10 10 10 11 12 14 16 16 15 14 12 11 11 10 11 11 11 11 10 10 11 12 13
17 15 14 14 16 17 17 17 16 15 13 13 12 10 10 10 10 9 10 11 10 9 8 6 5 5 6 7 6 5 4 5 5 5 6 6 6 6 6 6 6 6 7 8 9 11 12 12 11 10 10 9 10 10 10 11 11 11 11 11 12 13
19 17 16 16 17 18 18 19 18 18 17 16 15 13 11 10 9 9 9 11 10 9 8 7 6 5 5 6 5 4 4 3 4 4 5 5 4 4 3 4 4 4 4 4 5 6 6 7 8 8 8 8 9 9 10 10 10 11 11 11 11 11
20 20 19 19 19 19 20 19 20 20 20 20 18 16 13 11 9 9 10 11 10 9 8 7 6 5 4 4 4 4 3 3 3 3 3 4 3 3 3 4 4 4 4 4 4 4 4 5 5 6 6 7 7 8 8 8 9 10 10 10 10 10
22 22 22 21 22 22 22 22 22 22 21 21 21 19 17 14 11 9 10 11 10 8 6 5 5 4 3 3 3 3 3 3 3 3 4 4 4 4 4 5 5 5 4 4 4 3 3 3 3 4 4 4 4 4 4 4 5 5 6 6 7 7
23 23 23 21 21 23 24 25 25 25 25 24 23 24 25 20 14 10 10 10 9 7 5 4 3 3 2 2 2 3 3 3 4 4 4 4 4 5 5 5 5 5 5 4 4 3 3 2 2 3 3 3 3 2 2 2 2 3 3 4 4 5
23 23 23 23 25 27 26 25 25 26 28 27 26 30 30 23 15 10 9 9 7 6 4 2 2 2 2 3 4 4 3 3 3 3 3 3 3 4 4 4 4 4 4 4 3 3 2 1 1 1 1 1 1 1 1 0 1 1 1 2 2 3
24 24 23 23 25 26 22 19 21 22 23 25 28 33 30 21 14 10 8 8 6 4 3 1 1 2 3 4 5 6 6 6 5 4 4 3 2 2 1 0 0 0 1 1 1 2 2 3 4 4 4 4 4 4 4 4 3 3 2 2 1 1
23 21 20 19 22 24 20 17 19 20 19 20 22 26 24 18 14 11 9 8 6 5 4 3 3 4 5 6 7 9 10 10 10 10 9 9 8 8 7 6 5 5 5 5 5 5 6 6 7 7 7 7 6 6 6 6 5 4 4 3 3 3

ECMWFFLT2_700_spd_030.txt.gz
Wind_Speed
11 12 13 15 18 20 20 19 17 17 16 15 14 14 13 11 10 9 8 7 6 5 4 2 2 2 2 3 3 3 3 3 2 2 2 3 5 6 7 7 8 11 14 18 20 21 22 22 21 20 20 21 21 22 22 21 20 20 19 20 21 19
11 14 14 16 19 21 20 19 19 19 18 17 17 15 13 12 10 9 8 7 6 5 4 3 3 3 3 4 3 4 4 3 2 2 2 2 4 5 7 8 9 10 12 15 18 20 21 22 22 21 20 20 21 21 22 22 21 21 19 20 21 21
13 15 15 16 18 19 19 19 18 18 17 17 16 15 14 12 11 10 8 7 6 5 4 4 3 3 4 4 4 4 4 4 2 2 2 2 2 4 6 7 9 11 12 14 16 18 21 22 22 21 21 21 21 21 21 21 21 21 21 20 20 21
16 15 16 18 19 16 15 15 15 15 15 15 14 14 13 11 9 9 8 8 7 6 6 5 3 3 3 4 4 4 5 5 4 2 2 1 1 2 3 5 8 10 12 13 13 15 17 19 19 20 21 21 21 20 20 20 21 21 22 21 20 21
17 15 17 19 18 15 13 13 14 13 12 12 12 11 9 9 10 11 10 8 8 7 6 5 4 4 4 3 4 4 5 6 5 3 2 1 0 1 1 1 3 6 9 11 13 13 14 15 16 18 20 20 19 20 19 19 19 19 21 21 21 21
17 18 20 19 16 15 15 14 12 9 8 8 8 7 6 9 12 12 9 7 8 8 7 7 5 4 3 2 3 4 5 7 6 4 3 2 1 2 2 1 1 2 5 8 11 14 14 14 14 16 18 19 19 20 19 19 19 19 19 20 21 22
18 19 17 13 11 14 14 11 9 6 8 8 6 5 7 10 10 7 3 5 6 7 9 9 5 4 3 2 3 3 5 6 7 5 4 3 2 1 1 1 2 2 2 4 7 11 13 12 12 13 14 16 18 19 19 19 19 19 19 19 20 21
20 17 12 9 7 10 10 7 7 7 9 10 7 7 9 9 6 4 4 6 5 8 11 6 5 4 3 3 4 5 6 7 7 6 4 3 2 2 2 2 3 2 2 2 3 5 6 7 8 10 11 14 16 17 18 19 19 19 18 19 19 19
16 11 9 7 5 6 7 5 6 8 9 8 7 8 7 3 4 7 7 7 6 9 13 8 6 6 4 5 6 7 7 7 8 7 6 5 4 3 3 4 4 4 3 2 2 2 2 4 6 8 9 12 14 15 16 18 18 17 17 17 17 18
10 8 8 6 5 6 6 6 6 6 7 6 8 7 1 2 5 8 7 7 8 11 13 11 7 5 6 8 8 9 9 10 10 10 9 7 6 5 5 5 5 4 4 3 3 2 3 4 6 8 9 9 11 12 13 15 16 16 15 16 16 16
10 9 7 6 6 6 6 5 5 5 4 6 9 4 1 4 8 8 7 8 10 12 12 12 9 5 6 8 9 11 11 11 11 11 11 9 8 7 7 6 6 5 4 4 3 2 3 5 6 7 7 7 8 9 9 11 14 14 14 14 14 15
12 10 8 7 6 5 4 5 5 5 5 8 8 1 1 7 9 8 8 9 11 12 12 11 10 9 9 10 11 11 10 9 10 10 10 9 9 9 8 8 7 6 5 4 3 3 3 5 6 7 7 7 7 8 8 9 11 12 13 14 13 15
11 10 9 7 6 5 5 5 4 4 5 8 5 1 4 9 8 7 8 10 11 11 10 10 10 11 11 11 11 12 11 10 10 9 8 8 9 10 10 9 8 7 6 5 4 4 4 5 5 6 7 7 7 8 7 8 10 11 12 13 13 14
11 11 9 8 7 6 6 4 2 3 4 5 3 2 6 9 7 7 9 10 12 11 8 9 11 12 12 10 10 12 12 11 9 8 9 9 10 10 8 7 7 8 7 6 6 5 5 5 5 6 6 6 6 7 7 8 9 10 12 13 14 14
13 11 9 9 7 6 4 3 5 5 2 1 1 2 6 7 7 8 10 10 12 12 8 10 12 10 9 9 10 11 12 11 9 10 9 8 8 8 6 5 6 8 8 7 7 6 5 5 5 5 5 5 6 6 7 8 9 9 11 13 13 14
13 10 9 9 8 7 6 6 8 7 5 5 4 2 3 4 5 8 10 10 12 12 10 11 12 9 9 9 10 12 12 11 10 10 8 7 8 8 6 7 7 8 9 9 7 6 6 5 5 5 5 5 4 5 6 7 8 8 9 10 11 13
13 11 10 10 9 9 8 8 10 10 9 8 7 6 5 4 2 5 9 10 12 13 11 11 11 10 9 9 10 12 13 11 10 10 9 10 10 9 7 7 8 8 9 9 7 6 5 5 4 4 4 4 4 5 6 6 6 7 9 10 11 11
14 14 12 11 10 10 9 9 11 11 11 10 10 9 9 8 6 3 4 8 10 12 13 12 12 11 10 10 10 12 13 12 12 12 12 12 11 9 9 9 8 8 8 6 6 6 5 4 4 5 6 6 6 6 6 6 6 8 10 10 9 7
17 16 15 14 13 11 10 10 11 11 10 10 10 10 10 11 10 9 6 5 7 9 12 13 13 12 11 11 11 12 13 13 13 13 13 12 10 9 9 10 9 8 8 6 6 5 4 4 5 7 8 8 8 8 8 7 8 10 10 8 8 6
18 18 17 17 14 12 11 9 9 9 9 9 10 10 11 12 11 11 10 7 5 6 9 11 12 12 12 11 11 12 12 13 13 14 13 12 11 11 10 10 8 7 8 7 7 6 5 5 7 7 8 8 8 9 9 9 9 9 10 8 7 7
20 20 18 16 14 12 10 8 7 7 7 7 7 8 9 11 11 12 11 10 7 4 5 8 10 11 12 11 12 12 12 13 14 14 14 12 12 11 10 9 8 8 8 8 8 7 7 8 9 9 10 10 9 10 10 11 9 9 9 8 7 7
19 19 18 16 14 11 9 6 5 4 4 4 5 6 7 8 10 11 12 11 10 7 4 5 8 10 12 12 12 12 13 14 14 14 14 12 12 11 11 11 10 10 9 9 9 9 9 10 11 11 11 12 11 11 11 12 11 10 10 8 8 8
18 17 16 15 13 10 8 6 4 2 1 2 3 4 6 7 8 10 11 12 11 9 7 5 5 8 11 13 13 13 13 14 14 14 13 13 12 12 12 13 12 12 11 10 10 10 10 11 11 11 11 12 12 12 13 13 13 12 11 9 9 9
16 17 17 15 12 10 8 5 3 2 0 2 2 4 5 6 7 9 11 12 12 11 9 7 5 5 7 10 13 14 14 14 14 14 14 14 13 13 14 14 15 15 13 12 11 11 11 11 11 11 11 13 14 13 14 15 15 13 11 10 10 10
15 17 17 15 13 10 8 6 4 2 1 2 3 4 5 6 7 8 10 11 12 12 11 9 7 6 6 7 9 12 13 14 14 14 13 13 13 13 13 14 15 15 12 11 12 12 12 12 12 13 13 13 14 14 14 15 13 12 11 10 10 10
16 18 18 16 14 11 9 6 5 3 3 3 4 5 6 7 8 9 10 12 12 12 12 11 9 7 7 6 7 9 11 13 14 15 14 14 13 13 13 14 15 15 12 11 12 12 12 13 14 13 13 14 14 14 14 13 11 10 10 10 10 10
18 19 19 17 15 13 10 8 6 5 5 5 5 6 8 9 9 10 12 13 13 13 12 11 10 8 7 6 6 7 9 11 13 14 15 15 15 15 15 15 16 15 14 14 14 12 13 14 14 13 13 14 14 14 14 12 11 10 9 10 10 10
20 20 20 19 16 14 12 11 8 7 6 6 7 8 9 10 11 12 13 15 15 15 14 12 10 9 7 6 5 6 8 9 10 10 11 12 13 14 14 13 13 12 12 13 12 12 13 14 14 13 12 12 12 13 14 13 12 9 6 9 10 10
22 21 21 21 18 16 15 13 10 8 7 8 9 10 11 12 13 14 14 15 16 17 16 14 11 9 7 6 5 5 6 7 7 7 7 8 9 10 10 9 8 8 9 10 11 11 12 13 13 12 11 10 10 11 12 12 11 8 6 8 9 8
25 23 23 23 21 18 17 14 11 9 8 9 10 11 13 14 14 15 15 16 16 16 15 14 13 10 8 7 6 5 4 4 5 5 6 6 6 7 7 7 7 7 7 8 9 9 10 11 11 11 10 11 10 9 10 10 9 7 7 8 8 7
26 25 24 23 22 20 18 15 12 9 9 11 12 13 15 16 16 16 17 17 16 15 14 13 14 13 9 7 6 5 4 3 3 4 5 5 5 6 6 7 7 7 6 6 6 7 7 8 9 9 9 9 9 8 8 8 8 7 7 7 7 7
29 27 25 23 22 21 19 16 13 11 11 12 14 15 17 18 19 19 19 18 17 16 16 16 17 15 11 7 6 4 3 3 3 4 5 5 6 7 7 7 8 9 9 8 7 7 7 7 7 7 6 6 6 6 6 6 6 6 6 6 6 7
23 22 21 21 20 21 19 16 13 12 13 13 14 17 19 20 21 21 20 20 19 19 20 21 19 16 11 7 5 3 2 3 3 4 5 6 7 7 8 8 8 9 9 10 9 9 9 8 8 8 7 7 6 6 7 7 6 5 5 6 6 6
16 16 17 18 19 19 18 16 15 14 14 14 15 17 19 21 22 22 22 22 23 24 22 19 15 13 9 5 3 3 3 3 4 5 5 6 6 7 7 8 8 8 9 10 10 10 10 9 10 10 9 8 8 8 7 7 7 7 7 6 6 6
13 16 18 16 17 18 17 17 16 15 15 15 16 18 20 20 20 21 22 24 26 24 15 10 8 9 7 3 2 2 3 4 4 5 5 5 5 6 7 8 8 9 10 10 11 11 11 11 11 11 10 9 9 8 8 7 7 7 7 6 5 5
15 16 17 16 16 17 16 16 15 15 15 16 17 19 20 19 18 19 21 23 22 14 6 4 6 6 4 2 3 3 4 4 5 5 6 6 7 8 9 9 10 11 11 11 11 11 11 11 10 10 9 9 9 8 7 7 6 6 6 5 5 4
16 15 15 16 16 16 15 14 14 15 16 17 19 20 20 19 18 18 18 16 11 4 2 4 5 4 2 3 4 5 5 6 6 7 8 9 10 11 11 12 12 13 13 13 13 13 12 12 11 11 10 10 10 9 8 7 7 6 6 5 5 4

ECMWFFLT2_700_spd_033.txt.gz
Wind_Speed
15 15 15 15 14 12 13 14 14 15 14 15 15 14 13 12 10 9 9 9 8 8 7 5 5 6 6 6 5 5 6 6 6 7 7 8 9 10 10 11 14 19 22 24 24 23 23 24 25 25 25 24 24 23 22 20 19 19 19 19 18 15
14 14 12 12 11 10 14 14 13 11 11 13 15 14 12 12 12 13 12 10 11 10 8 7 7 7 6 6 5 5 5 5 5 6 6 7 8 9 11 11 12 15 19 22 24 23 23 23 24 24 25 25 24 24 23 21 21 21 21 21 19 17
15 14 10 8 7 9 12 10 9 9 11 13 12 11 12 14 15 14 12 11 11 10 10 11 10 9 8 6 5 5 5 5 5 5 5 5 6 7 10 12 12 13 15 19 21 23 22 22 22 23 24 24 25 23 21 21 21 23 24 21 20 20
18 12 6 6 8 8 7 6 8 9 10 11 10 12 13 14 13 11 9 9 9 10 11 10 7 7 7 5 5 5 6 5 5 5 5 5 5 6 8 11 13 13 14 15 18 21 22 21 22 23 25 25 25 24 21 21 21 24 25 21 21 23
12 6 4 6 7 6 6 7 7 8 10 11 12 12 11 10 11 10 7 5 7 10 8 3 6 7 5 4 5 6 6 6 6 6 6 6 6 6 6 8 11 12 13 14 15 17 19 21 22 22 24 24 24 23 22 21 22 25 24 21 22 23
6 5 6 4 3 5 7 7 6 8 11 13 13 11 9 9 10 8 5 5 8 8 4 3 6 7 7 8 9 7 6 7 7 7 8 8 7 6 6 8 9 10 11 13 14 16 17 19 21 22 23 23 22 22 22 22 24 26 23 22 24 23
3 6 4 2 3 5 5 4 5 7 10 12 10 9 8 7 7 5 6 8 7 5 5 6 6 7 8 11 12 10 9 9 9 9 9 8 8 7 7 8 8 8 9 11 13 15 16 17 20 22 23 23 23 23 22 23 25 26 24 23 24 23
5 6 3 3 3 2 4 4 5 6 6 6 4 5 5 4 4 5 8 8 5 6 7 6 6 7 7 9 12 11 10 11 11 11 9 8 9 9 9 8 7 7 7 8 9 11 14 15 17 19 21 22 23 23 23 23 25 26 23 22 23 22
7 6 5 5 3 3 3 3 3 3 2 2 2 4 3 2 2 6 9 8 7 9 9 8 8 8 7 9 10 10 10 9 10 9 7 8 10 11 12 10 9 8 7 6 6 8 11 13 15 17 18 19 20 22 23 23 24 24 21 20 22 22
7 6 7 5 5 4 3 3 3 3 3 3 4 3 2 2 4 9 11 9 9 10 9 9 10 9 9 10 9 10 11 9 10 10 7 10 11 11 11 9 9 9 7 6 6 7 9 11 13 15 16 16 17 19 20 20 20 20 20 19 20 22
9 8 7 6 6 4 4 5 4 5 5 5 4 3 2 5 8 11 12 9 8 8 9 10 10 9 10 10 9 10 11 9 9 10 10 11 11 10 10 8 8 10 9 7 7 7 8 10 11 13 14 14 15 15 15 16 16 18 19 18 18 20
11 9 7 6 5 4 5 5 6 6 6 5 4 4 5 8 11 12 12 10 8 8 9 10 10 10 10 9 8 9 9 8 8 10 12 12 10 9 9 9 8 9 11 9 8 8 9 10 10 11 12 12 13 13 12 13 14 17 17 15 16 16
12 11 8 5 5 5 6 4 5 5 6 5 5 5 7 9 12 12 11 10 9 9 10 9 9 10 10 8 8 9 9 7 8 10 11 11 9 8 8 10 8 7 9 11 10 8 10 11 11 12 11 11 11 12 12 12 12 15 16 15 13 13
13 12 9 7 7 7 5 4 3 3 5 6 6 6 7 9 11 10 9 10 9 10 10 9 9 10 10 8 7 8 9 8 9 10 10 9 10 9 9 9 7 5 7 11 13 11 10 11 12 11 11 11 11 11 11 11 11 13 15 13 8 9
15 12 10 10 9 7 6 5 5 4 5 5 5 5 6 7 9 9 8 9 10 10 10 10 11 10 10 8 6 7 9 9 9 10 10 10 10 9 8 8 6 7 8 8 10 13 14 13 11 11 10 11 10 10 10 10 11 12 11 9 5 6
17 14 12 11 10 8 7 6 7 6 5 5 4 3 2 3 4 6 7 8 10 11 10 11 12 10 9 8 7 7 8 9 9 8 8 9 9 8 8 7 6 8 9 8 6 10 13 14 11 10 11 10 9 10 10 11 11 8 6 7 7 7
18 16 14 13 12 11 9 9 9 8 8 7 5 4 2 2 2 2 4 5 8 9 10 11 11 11 10 10 9 7 7 9 7 6 7 7 7 8 8 7 6 8 9 9 8 9 8 11 11 11 12 11 10 10 10 10 8 6 6 9 10 8
19 17 15 15 15 14 13 11 10 10 9 8 7 6 5 5 5 5 5 3 4 7 8 9 10 12 11 10 10 8 7 6 4 5 8 9 8 8 8 8 8 9 10 10 10 10 9 8 10 11 11 11 10 10 11 10 8 7 9 10 8 8
19 17 18 17 17 16 15 14 12 11 9 8 8 7 7 7 7 8 8 7 5 4 5 7 9 10 10 10 10 10 9 5 3 6 9 9 9 9 9 8 8 9 11 11 11 10 10 10 10 10 11 11 11 11 12 12 9 8 9 9 8 8
20 19 19 18 18 17 16 14 12 11 9 8 8 8 8 8 9 10 10 10 9 7 5 5 6 7 8 9 11 12 10 6 5 7 9 10 9 9 9 9 9 10 11 12 12 13 13 12 10 9 11 12 12 12 12 12 10 9 8 8 8 8
22 22 20 18 18 17 15 13 12 10 9 8 8 8 8 8 9 11 11 11 11 10 9 6 5 5 5 7 9 12 11 7 7 8 10 10 9 9 10 10 10 10 10 12 14 16 14 10 8 7 8 10 11 11 11 12 11 9 9 9 9 9
23 22 21 20 19 17 15 13 12 10 8 7 6 6 6 7 9 10 12 13 13 12 11 9 7 5 5 6 7 10 12 10 9 10 10 11 10 10 11 10 10 10 11 12 13 13 10 7 7 7 8 10 10 9 10 10 10 9 9 10 9 10
25 23 24 24 20 17 15 13 11 9 7 6 5 5 5 6 8 10 12 14 15 14 13 11 10 8 6 6 6 8 9 11 12 11 10 10 10 11 12 10 9 11 12 12 13 12 10 7 7 7 8 9 9 9 9 10 9 10 9 8 9 9
26 26 26 26 22 18 16 13 11 8 6 5 4 4 5 6 8 10 13 15 15 16 15 14 12 10 8 8 6 6 7 9 11 12 10 10 10 11 11 8 9 12 13 13 13 11 9 8 8 9 8 8 8 7 7 8 9 10 9 8 8 8
27 27 26 25 23 18 15 13 10 8 6 5 4 4 5 6 7 8 11 13 14 15 15 15 14 12 11 10 9 6 6 8 10 12 11 11 10 11 9 7 9 12 12 12 11 9 9 9 9 10 9 9 9 7 6 7 8 8 9 8 8 7
27 27 26 24 23 18 15 13 10 8 6 4 4 4 5 5 6 7 8 10 12 13 14 15 15 14 13 12 10 9 7 8 10 12 12 12 11 11 9 7 9 10 10 9 9 9 10 11 11 12 11 11 11 9 7 8 7 7 8 8 7 6
28 27 27 25 24 19 15 13 10 8 5 4 3 3 4 5 6 7 8 9 10 12 13 14 14 14 15 13 11 10 9 8 8 9 9 10 11 11 9 9 11 10 10 10 10 10 11 12 13 13 12 12 11 9 8 8 7 7 7 7 7 6
27 28 28 24 24 20 15 11 8 6 3 1 2 4 5 6 7 8 9 9 10 12 12 13 13 13 14 14 13 11 10 8 6 5 5 5 7 9 10 11 12 12 12 11 11 11 11 11 12 12 12 11 10 9 9 9 9 8 7 6 7 7
24 26 26 21 21 18 14 11 8 5 3 1 3 5 7 8 9 9 10 11 12 12 12 12 12 12 12 12 13 13 10 8 6 4 4 4 5 7 9 11 11 11 12 12 12 12 10 11 11 11 11 10 9 9 8 8 9 8 6 5 5 5
21 21 21 19 20 18 13 10 8 6 4 3 4 6 7 9 11 11 12 13 14 15 14 13 12 11 11 12 13 13 10 7 5 4 4 5 5 7 8 8 8 9 11 12 12 11 11 11 11 9 8 9 9 8 7 5 6 6 6 5 4 4
13 14 15 16 16 16 13 10 9 7 6 4 4 6 8 10 12 13 15 16 17 17 17 16 15 14 12 11 12 12 10 7 5 4 4 5 6 6 6 6 6 6 7 9 10 9 10 11 9 8 8 8 8 8 6 5 5 6 6 5 4 4
8 11 13 13 12 13 14 13 11 9 7 6 6 7 9 11 13 15 17 18 18 18 17 18 18 16 14 12 10 10 10 7 5 4 4 5 6 6 5 5 5 4 5 6 6 7 7 8 7 7 7 7 7 7 5 4 4 5 4 3 3 4
7 10 12 12 12 15 16 14 12 11 9 9 8 9 11 12 14 16 18 18 18 18 18 19 19 15 12 10 8 9 9 6 4 3 4 5 5 6 6 6 6 5 5 5 5 6 7 7 7 7 7 8 7 7 6 5 4 4 3 3 3 3
7 8 11 12 14 16 16 14 13 12 11 11 10 10 12 13 15 17 18 19 18 19 20 18 14 9 7 7 6 7 7 5 4 4 4 5 6 6 6 7 7 6 6 6 6 7 8 8 8 8 9 9 8 8 7 6 5 5 4 4 3 3
7 7 11 13 14 15 17 17 15 13 12 12 12 12 13 15 16 17 18 18 18 19 17 11 6 3 3 4 5 6 5 4 4 4 5 6 6 6 6 7 7 8 7 7 7 8 9 9 9 10 9 8 7 7 6 6 6 6 5 5 5 4
7 9 13 15 15 16 17 18 16 14 14 14 14 14 15 16 17 18 18 17 17 16 10 4 1 1 0 2 3 4 4 3 4 4 5 6 7 7 7 7 8 9 9 9 9 9 9 9 10 10 9 8 7 7 7 6 6 5 4 5 4 5
13 13 17 18 18 18 18 17 16 15 15 15 15 15 17 17 18 19 18 16 15 12 6 2 1 1 0 2 3 3 3 4 4 5 6 7 7 8 9 9 9 10 10 10 10 10 10 10 10 10 9 9 8 8 7 7 6 5 5 5 5 6

ECMWFFLT2_700_spd_036.txt.gz
Wind_Speed
8 6 7 6 5 4 6 8 9 10 13 15 15 15 15 15 15 14 12 12 10 9 8 5 3 2 2 3 4 6 6 7 7 8 9 9 9 9 11 15 19 22 24 25 25 25 26 26 26 25 24 23 23 21 21 20 21 22 19 17 15 14
6 5 6 4 4 5 6 8 9 11 14 15 14 14 15 14 13 12 12 11 10 9 8 6 6 5 4 4 4 4 5 6 7 8 9 9 10 10 10 12 15 19 22 24 24 24 24 25 25 25 25 24 23 23 22 22 23 23 20 18 18 17
4 2 1 1 4 6 6 8 9 11 12 13 14 14 14 13 13 12 11 11 10 10 10 9 10 9 7 5 4 4 5 6 7 8 8 9 9 10 11 12 13 15 18 21 22 22 23 23 25 25 26 25 24 24 23 22 24 24 22 20 20 20
6 3 3 4 5 6 7 8 9 10 11 13 14 14 14 13 13 12 12 12 12 13 13 12 12 11 9 6 6 5 5 6 7 8 8 9 9 10 12 13 13 13 15 18 20 21 22 23 24 25 25 25 24 24 23 23 25 26 23 21 21 22
6 3 5 5 6 7 7 8 9 10 11 13 13 13 13 13 13 13 14 14 13 14 14 13 13 10 9 8 8 6 6 6 6 7 8 9 10 10 11 13 14 14 14 15 18 20 21 23 24 24 24 24 24 23 23 24 26 28 25 22 23 24
3 4 6 6 6 7 7 8 8 8 9 11 11 11 12 13 14 15 13 12 12 11 10 11 11 9 8 9 9 8 7 7 6 7 10 11 11 10 10 10 11 13 15 15 16 18 19 22 22 22 23 23 23 23 23 24 26 27 25 23 24 24
6 6 7 6 6 7 7 7 7 5 7 8 9 10 11 11 11 11 10 9 10 10 8 8 9 8 9 10 9 9 10 11 10 10 12 12 12 11 10 9 7 8 13 15 15 15 16 19 20 21 23 23 23 23 23 24 26 27 25 23 23 24
6 8 7 6 6 7 6 6 5 4 5 6 8 10 10 9 8 8 8 8 9 10 8 7 7 9 10 10 10 10 10 11 11 13 14 13 12 11 10 9 5 5 10 13 15 14 14 18 19 21 22 22 22 22 24 24 26 26 24 24 25 25
6 7 6 5 6 5 4 6 6 6 7 8 10 10 10 9 8 8 8 8 9 10 9 7 7 9 11 11 10 10 8 8 10 11 11 12 12 11 9 8 5 6 8 10 13 13 14 16 18 20 21 22 22 23 25 24 24 25 23 24 25 24
7 6 5 5 5 5 5 6 8 8 9 10 10 10 10 10 9 8 8 9 9 8 9 10 10 11 11 11 11 12 11 11 11 11 11 11 12 11 8 7 5 6 8 9 11 12 13 12 15 19 20 21 21 23 27 24 22 22 20 21 22 22
8 6 5 5 6 5 6 7 8 9 10 10 9 10 10 10 8 7 7 8 7 7 9 11 11 10 10 10 11 12 11 10 10 10 11 11 11 10 7 6 6 7 7 9 10 11 12 10 11 17 19 21 21 25 28 22 19 18 16 18 20 21
7 6 5 6 7 6 6 7 8 9 9 9 8 9 9 7 6 6 7 7 7 7 7 7 7 7 8 8 9 10 9 9 9 8 9 9 9 8 6 7 8 8 7 8 7 8 11 10 9 13 17 18 19 24 24 13 10 13 11 12 15 17
8 7 6 6 7 7 6 7 8 8 8 8 7 7 6 5 5 6 8 8 7 6 6 5 5 6 7 7 8 9 9 9 8 7 7 8 7 7 6 7 9 9 8 8 8 8 9 9 10 12 13 15 16 20 17 6 5 7 8 9 9 11
10 9 7 6 7 8 8 8 8 7 7 8 7 6 6 6 6 7 8 8 7 7 6 5 5 5 5 6 8 9 8 7 7 7 7 7 7 6 7 7 8 9 9 10 10 8 8 9 10 12 14 15 15 16 12 6 7 7 7 8 8 9
11 10 8 8 9 9 8 8 7 6 7 6 5 5 5 5 6 6 6 6 6 6 6 6 5 6 5 6 6 6 6 6 7 7 7 8 7 7 7 8 9 10 10 10 10 8 9 10 11 12 13 12 11 13 10 8 9 7 6 8 9 9
14 13 9 9 10 10 8 7 7 6 6 5 4 3 3 3 5 4 4 4 4 5 6 5 5 5 6 6 4 4 5 6 6 6 6 7 7 8 9 9 10 11 12 11 10 9 10 10 11 11 12 11 13 13 11 9 9 7 6 8 9 8
16 15 11 11 12 11 9 8 8 7 6 5 4 3 1 0 1 1 2 2 3 5 5 4 4 4 5 4 3 4 6 5 5 5 5 6 7 9 10 9 9 11 13 12 11 11 10 11 12 9 11 14 13 10 10 10 9 8 8 8 8 8
17 16 13 13 13 12 11 10 9 8 7 6 6 6 5 5 5 5 5 4 1 2 2 3 3 2 2 2 1 3 5 4 3 4 5 6 7 8 10 10 9 10 12 11 11 11 11 12 12 9 11 14 10 6 8 9 8 8 8 7 7 8
18 18 15 14 14 13 12 11 10 10 9 9 9 8 8 8 9 9 9 7 5 5 3 1 1 2 1 0 1 3 4 4 4 4 4 5 6 8 9 10 10 10 10 10 12 12 11 12 11 10 11 12 8 5 7 10 7 7 9 8 8 9
20 19 17 16 15 15 14 13 12 10 10 10 10 10 10 10 11 11 11 10 9 8 6 5 4 2 2 2 1 2 3 3 3 4 4 5 6 8 8 9 9 10 11 11 12 12 11 11 9 10 11 11 6 5 7 10 10 8 8 8 9 9
21 19 18 17 17 16 15 14 13 11 11 10 10 10 10 11 12 13 13 13 12 11 9 8 6 4 4 4 1 2 3 4 3 3 4 4 6 8 9 10 10 10 11 11 11 11 10 10 9 9 11 9 6 5 8 9 8 9 9 6 8 8
22 20 19 19 19 18 16 14 14 12 10 9 9 9 10 11 12 13 14 15 14 14 12 10 8 7 7 5 2 2 4 4 3 3 5 5 6 8 9 10 10 10 10 10 10 10 9 10 9 9 12 10 7 7 9 9 7 7 9 7 8 8
23 23 22 21 21 19 17 16 14 11 9 8 7 8 8 9 10 11 13 14 14 14 13 12 10 9 8 7 5 1 1 3 3 3 4 5 5 7 8 9 9 10 10 10 10 10 9 10 9 9 12 11 8 8 9 8 7 7 8 8 9 7
24 24 23 21 20 20 18 16 13 10 8 7 6 6 6 6 7 8 9 11 12 12 13 12 12 10 8 7 6 4 2 1 3 3 3 4 5 7 8 7 8 10 10 11 11 11 11 10 9 11 12 9 7 8 7 6 6 6 7 8 9 7
24 24 22 21 19 19 18 15 11 8 7 6 5 4 4 4 4 5 6 8 9 10 11 12 11 10 8 7 7 5 2 0 2 3 4 4 5 7 8 7 8 9 10 11 11 12 13 12 11 12 10 7 6 6 5 4 5 5 6 8 9 8
24 23 21 20 19 17 16 15 11 9 8 6 4 3 2 2 3 5 6 7 8 9 9 10 10 9 9 9 8 7 5 2 2 4 6 6 7 8 8 7 8 8 9 11 11 12 13 12 11 11 9 7 6 6 6 5 5 5 6 7 8 7
22 22 20 20 18 16 15 14 12 9 7 5 3 1 1 2 4 5 6 6 7 8 8 8 8 8 8 8 9 8 7 6 3 2 5 7 9 9 9 9 9 9 9 10 10 10 11 10 10 10 9 8 6 7 8 7 7 7 6 6 8 7
19 20 20 20 18 16 16 14 12 9 7 5 2 1 2 3 4 5 5 6 7 8 8 8 7 7 7 8 8 8 8 8 5 0 4 6 8 9 9 10 10 9 9 9 10 10 9 9 8 8 9 9 7 7 8 9 8 8 6 6 8 7
16 19 19 19 18 16 16 15 12 9 7 4 2 2 2 4 5 6 7 8 10 10 9 9 8 8 8 8 8 8 8 8 6 1 4 5 6 7 8 10 10 10 10 10 11 10 9 9 7 6 7 7 8 8 8 9 8 8 8 7 7 6
16 17 18 17 17 16 15 14 13 11 8 5 3 3 4 5 6 8 9 11 12 11 11 9 10 10 10 9 7 7 6 7 7 2 3 5 6 5 5 8 10 10 10 10 9 7 8 9 7 6 6 5 7 8 7 7 8 9 9 7 6 6
16 16 17 17 18 18 16 14 13 12 9 7 5 5 5 6 7 9 10 12 12 12 12 11 11 12 12 10 8 6 5 6 6 4 2 5 6 5 5 6 8 9 10 10 9 8 9 9 7 7 6 5 7 8 7 6 8 9 9 8 7 7
16 17 19 21 23 22 18 14 14 13 10 8 7 7 7 7 9 10 11 12 14 14 13 13 14 13 11 8 7 6 4 4 4 3 2 4 4 4 4 5 6 8 9 9 9 10 11 10 8 8 7 7 8 7 6 6 7 9 9 8 7 6
15 17 19 21 22 21 18 16 15 14 12 11 10 9 9 10 10 11 12 13 15 15 15 15 14 11 8 5 5 4 3 2 3 2 3 3 3 4 4 5 6 7 7 6 7 9 10 10 9 9 8 8 7 6 6 7 7 8 8 7 7 6
14 16 18 19 21 21 19 17 16 15 14 13 12 12 11 11 12 13 13 14 15 15 15 15 11 7 4 4 5 3 2 1 2 3 4 4 3 3 3 4 6 6 6 5 6 7 8 10 10 9 9 9 8 8 9 10 10 9 8 8 8 7
12 14 16 20 22 22 20 19 17 17 17 16 15 13 13 13 13 14 14 14 16 15 15 12 8 4 1 3 4 3 2 2 3 3 4 5 5 4 4 5 6 7 7 6 6 7 8 10 11 11 10 9 9 9 10 11 12 11 10 10 10 8
14 16 16 18 21 21 21 20 18 18 18 17 17 15 14 14 14 14 14 15 16 15 13 10 5 2 0 3 3 2 3 3 3 4 4 5 5 6 6 7 7 7 7 7 7 8 8 9 11 10 10 9 9 9 9 9 9 9 9 11 13 10
19 19 18 18 18 18 19 20 20 20 20 18 18 17 16 15 14 14 14 15 15 14 12 8 4 2 0 2 3 2 3 3 4 4 5 5 5 6 7 7 7 7 7 7 7 8 8 9 10 9 9 9 9 9 9 8 7 6 7 9 12 12